sat.trackr.live / text

‹ back to catalog

STARLINK-32476

NORAD 61550 · 2024-184U

PAYLOAD ACTIVE UNKNOWN

§ Identity

Operator
Country
US
Launch date
2024-10-15
Launch site
AFWTR
Launch vehicle
Mass (kg)
RCS (m²)

Purposes: comms

External: N2YO · Heavens-Above · Gunter

§ Orbital elements

Epoch: 2026-05-25T00:52:38.307072Z

Period
94.21 min
Inclination
53.1616°
Eccentricity
0.0007792
Mean motion
15.28511317 rev/d
Perigee alt
474.9 km
Apogee alt
485.6 km
Semi-major
6,858.4 km
B*
-7.9133e-3
RAAN
19.4857°
Arg perigee
143.9824°
Mean anomaly
216.1702°
Rev number
9,019

§ Raw data

STARLINK-324761 61550U 24184U   26145.03655448 -.00216759  00000+0 -79133-2 0  99952 61550  53.1616  19.4857 0007792 143.9824 216.1702 15.28511317 90193

JSON: /api/v1/satellites/61550 · /tle

For live sub-satellite position, see the globe view (requires WebGL).

§ Visibility from observer

Set your observer location to see the next 7 days of passes ≥ 10°. The values pass through the URL so the page stays shareable.

No JS? Fill the form by hand. The geolocation button needs JavaScript.